| time (UTC) | temp C | wind direction | speed KPH | gust KPH | rain 1hr cm | rain 24hr cm | rain mn cm | humidity % | barometer mb |
| 20260507021102 | -17 | 220 | 3.2 | 3.2 | 0.00 | 1.70 | 1.70 | 1008.7 | |
| 20260507020601 | -17 | 220 | 1.6 | 3.2 | 0.00 | 1.70 | 1.70 | 1008.6 | |
| 20260507020056 | -17 | 220 | 0.0 | 3.2 | 0.00 | 1.70 | 1.70 | 1008.5 | |
| 20260507015555 | -17 | 220 | 1.6 | 4.8 | 0.00 | 1.70 | 1.70 | 1008.7 | |
| 20260507015052 | -17 | 219 | 3.2 | 3.2 | 0.00 | 1.70 | 1.70 | 1008.8 | |
| 20260507014549 | -17 | 219 | 1.6 | 3.2 | 0.00 | 1.70 | 1.70 | 1008.8 | |
| 20260507014044 | -17 | 219 | 0.0 | 0.0 | 0.00 | 1.70 | 1.70 | 1008.7 | |
| 20260507013541 | -17 | 219 | 0.0 | 3.2 | 0.00 | 1.70 | 1.70 | 1008.7 | |
| 20260507013039 | -17 | 218 | 0.0 | 0.0 | 0.00 | 1.70 | 1.70 | 1008.6 | |
| 20260507012536 | -17 | 218 | 1.6 | 3.2 | 0.00 | 1.70 | 1.70 | 1008.8 | |
| 20260507012032 | -17 | 221 | 4.8 | 6.4 | 0.00 | 1.70 | 1.70 | 1008.5 | |
| 20260507011530 | -17 | 223 | 3.2 | 3.2 | 0.00 | 1.70 | 1.70 | 1008.3 | |
| 20260507011025 | -17 | 218 | 0.0 | 3.2 | 0.00 | 1.70 | 1.70 | 1008.6 | |
| 20260507010520 | -17 | 216 | 0.0 | 3.2 | 0.00 | 1.70 | 1.70 | 1008.5 | |
| 20260507010017 | -17 | 221 | 3.2 | 4.8 | 0.00 | 1.70 | 1.70 | 1008.5 | |
| 20260507005514 | -17 | 221 | 3.2 | 9.7 | 0.00 | 1.70 | 1.70 | 1008.7 | |
| 20260507005011 | -17 | 221 | 3.2 | 9.7 | 0.00 | 1.70 | 1.70 | 1008.5 | |
| 20260507004508 | -17 | 227 | 3.2 | 6.4 | 0.00 | 1.70 | 1.70 | 1008.2 | |
| 20260507004005 | -17 | 222 | 3.2 | 4.8 | 0.00 | 1.70 | 1.70 | 1008.2 | |
| 20260507003500 | -17 | 254 | 6.4 | 6.4 | 0.00 | 1.70 | 1.70 | 1008.1 | |
| 20260507002955 | -17 | 230 | 3.2 | 6.4 | 0.00 | 1.70 | 1.70 | 1008.0 | |
| 20260507002452 | -17 | 219 | 3.2 | 6.4 | 0.00 | 1.70 | 1.70 | 1007.9 | |
| 20260507001944 | -17 | 228 | 3.2 | 4.8 | 0.00 | 1.70 | 1.70 | 1007.9 | |
| 20260507001440 | -17 | 304 | 8.0 | 9.7 | 0.00 | 1.70 | 1.70 | 1007.8 | |
| 20260507000938 | -17 | 227 | 3.2 | 3.2 | 0.00 | 1.70 | 1.70 | 1007.7 | |
| 20260507000435 | -17 | 220 | 3.2 | 6.4 | 0.00 | 1.70 | 1.70 | 1007.6 | |
| 20260506235929 | -17 | 231 | 4.8 | 4.8 | 0.00 | 1.70 | 1.70 | 1007.6 | |
| 20260506235427 | -17 | 239 | 6.4 | 6.4 | 0.00 | 1.70 | 1.70 | 1007.8 | |
| 20260506234921 | -17 | 217 | 1.6 | 4.8 | 0.00 | 1.70 | 1.70 | 1007.6 | |
| 20260506234420 | -17 | 232 | 4.8 | 6.4 | 0.00 | 1.70 | 1.70 | 1007.5 | |
| 20260506233917 | -17 | 216 | 3.2 | 4.8 | 0.00 | 1.70 | 1.70 | 1007.6 | |
| 20260506233414 | -17 | 224 | 3.2 | 11.3 | 0.00 | 1.70 | 1.70 | 1007.3 | |
| 20260506232910 | -17 | 231 | 3.2 | 11.3 | 0.00 | 1.70 | 1.70 | 1007.2 | |
| 20260506232406 | -17 | 254 | 6.4 | 14.5 | 0.00 | 1.70 | 1.70 | 1007.5 | |
| 20260506231902 | -17 | 264 | 6.4 | 9.7 | 0.00 | 1.70 | 1.70 | 1007.4 | |
| 20260506231400 | -17 | 333 | 14.5 | 17.7 | 0.00 | 1.70 | 1.70 | 1007.4 | |
| 20260506230857 | -17 | 299 | 8.0 | 16.1 | 0.00 | 1.70 | 1.70 | 1007.4 | |
| 20260506230353 | -17 | 284 | 9.7 | 17.7 | 0.00 | 1.70 | 1.70 | 1007.4 | |
| 20260506225844 | -17 | 322 | 11.3 | 14.5 | 0.00 | 1.70 | 1.70 | 1007.5 | |
| 20260506225342 | -17 | 235 | 8.0 | 11.3 | 0.00 | 1.70 | 1.70 | 1007.4 | |
| 20260506224839 | -17 | 259 | 11.3 | 14.5 | 0.00 | 1.70 | 1.70 | 1007.3 | |
| 20260506224336 | -17 | 322 | 11.3 | 14.5 | 0.00 | 1.70 | 1.70 | 1007.2 | |
| 20260506223832 | -17 | 314 | 12.9 | 16.1 | 0.00 | 1.70 | 1.70 | 1007.2 | |
| 20260506223327 | -17 | 291 | 8.0 | 14.5 | 0.00 | 1.70 | 1.70 | 1006.8 | |
| 20260506222825 | -17 | 250 | 12.9 | 20.9 | 0.00 | 1.70 | 1.70 | 1006.7 | |
| 20260506222320 | -17 | 253 | 6.4 | 12.9 | 0.00 | 1.70 | 1.70 | 1006.7 | |
| 20260506221818 | -17 | 353 | 12.9 | 16.1 | 0.00 | 1.70 | 1.70 | 1006.5 | |
| 20260506221316 | -17 | 277 | 8.0 | 11.3 | 0.00 | 1.70 | 1.70 | 1006.4 | |
| 20260506220813 | -17 | 329 | 14.5 | 17.7 | 0.00 | 1.70 | 1.70 | 1006.4 | |
| 20260506220313 | -17 | 253 | 9.7 | 14.5 | 0.00 | 1.70 | 1.70 | 1006.5 | |
| 20260506215810 | -17 | 228 | 11.3 | 14.5 | 0.00 | 1.70 | 1.70 | 1006.3 | |
| 20260506215306 | -17 | 296 | 9.7 | 12.9 | 0.00 | 1.70 | 1.70 | 1006.2 | |
| 20260506214802 | -17 | 281 | 9.7 | 17.7 | 0.00 | 1.70 | 1.70 | 1006.2 | |
| 20260506214259 | -17 | 299 | 11.3 | 14.5 | 0.00 | 1.70 | 1.70 | 1006.4 | |
| 20260506213758 | -17 | 242 | 8.0 | 14.5 | 0.00 | 1.70 | 1.70 | 1006.4 | |
| 20260506213254 | -17 | 232 | 6.4 | 17.7 | 0.00 | 1.70 | 1.70 | 1006.1 | |
| 20260506212752 | -17 | 249 | 9.7 | 22.5 | 0.00 | 1.70 | 1.70 | 1006.0 | |
| 20260506212247 | -17 | 237 | 4.8 | 12.9 | 0.00 | 1.70 | 1.70 | 1006.0 | |
| 20260506211742 | -17 | 259 | 9.7 | 17.7 | 0.00 | 1.70 | 1.70 | 1005.9 | |
| 20260506211239 | -17 | 314 | 11.3 | 20.9 | 0.00 | 1.70 | 1.70 | 1005.7 | |
| 20260506210736 | -17 | 222 | 6.4 | 14.5 | 0.00 | 1.70 | 1.70 | 1005.5 | |
| 20260506210233 | -17 | 263 | 9.7 | 20.9 | 0.00 | 1.70 | 1.70 | 1005.4 | |
| 20260506205730 | -17 | 257 | 6.4 | 17.7 | 0.00 | 1.70 | 1.70 | 1005.5 | |
| 20260506205225 | -17 | 239 | 9.7 | 14.5 | 0.00 | 1.70 | 1.70 | 1005.2 | |
| 20260506204718 | -17 | 262 | 6.4 | 17.7 | 0.00 | 1.70 | 1.70 | 1005.1 | |
| 20260506204215 | -17 | 232 | 4.8 | 9.7 | 0.00 | 1.70 | 1.70 | 1005.1 | |
| 20260506203713 | -17 | 297 | 14.5 | 17.7 | 0.00 | 1.70 | 1.70 | 1004.9 | |
| 20260506203209 | -17 | 256 | 6.4 | 9.7 | 0.00 | 1.70 | 1.70 | 1004.8 | |
| 20260506202702 | -17 | 227 | 3.2 | 6.4 | 0.00 | 1.70 | 1.70 | 1004.6 | |
| 20260506202157 | -17 | 238 | 4.8 | 14.5 | 0.00 | 1.70 | 1.70 | 1004.6 | |
| 20260506201655 | -17 | 255 | 9.7 | 14.5 | 0.00 | 1.70 | 1.70 | 1004.2 | |
| 20260506201151 | -17 | 235 | 8.0 | 17.7 | 0.00 | 1.70 | 1.70 | 1004.7 | |
| 20260506200648 | -17 | 311 | 11.3 | 12.9 | 0.00 | 1.70 | 1.70 | 1004.7 | |
| 20260506200144 | -17 | 240 | 6.4 | 11.3 | 0.00 | 1.70 | 1.70 | 1004.5 | |
| 20260506195641 | -17 | 244 | 4.8 | 9.7 | 0.13 | 1.70 | 1.70 | 1004.6 | |
| 20260506195137 | -17 | 289 | 8.0 | 17.7 | 0.13 | 1.70 | 1.70 | 1004.6 | |
| 20260506194634 | -17 | 249 | 9.7 | 12.9 | 0.00 | 1.68 | 1.68 | 1004.6 | |
| 20260506194130 | -17 | 207 | 6.4 | 17.7 | 0.00 | 1.68 | 1.68 | 1004.7 | |
| 20260506193628 | -17 | 233 | 6.4 | 14.5 | 0.00 | 1.68 | 1.68 | 1004.5 | |
| 20260506193125 | -17 | 251 | 6.4 | 17.7 | 0.00 | 1.68 | 1.68 | 1004.3 | |
| 20260506192622 | -17 | 237 | 8.0 | 12.9 | 0.00 | 1.68 | 1.68 | 1004.2 | |
| 20260506192118 | -17 | 264 | 9.7 | 16.1 | 0.18 | 1.68 | 1.68 | 1004.1 | |
| 20260506191615 | -17 | 229 | 6.4 | 11.3 | 0.00 | 1.65 | 1.65 | 1003.7 | |
| 20260506191111 | -17 | 218 | 1.6 | 4.8 | 0.00 | 1.65 | 1.65 | 1003.7 | |
| 20260506190609 | -17 | 218 | 3.2 | 4.8 | 0.00 | 1.65 | 1.65 | 1003.5 | |
| 20260506190106 | -17 | 215 | 0.0 | 4.8 | 0.00 | 1.65 | 1.65 | 1003.7 | |
| 20260506185603 | -17 | 215 | 0.0 | 4.8 | 0.00 | 1.65 | 1.65 | 1003.7 | |
| 20260506185059 | -17 | 209 | 1.6 | 4.8 | 0.00 | 1.65 | 1.65 | 1003.6 | |
| 20260506184557 | -17 | 216 | 1.6 | 6.4 | 0.00 | 1.65 | 1.65 | 1003.6 | |
| 20260506184054 | -17 | 212 | 0.0 | 3.2 | 0.00 | 1.65 | 1.65 | 1003.7 | |
| 20260506183549 | -17 | 215 | 1.6 | 6.4 | 0.00 | 1.65 | 1.65 | 1003.9 | |
| 20260506183046 | -17 | 216 | 0.0 | 6.4 | 0.00 | 1.65 | 1.65 | 1003.6 | |
| 20260506182543 | -17 | 211 | 1.6 | 6.4 | 0.00 | 1.65 | 1.65 | 1003.7 | |
| 20260506182040 | -17 | 246 | 4.8 | 9.7 | 0.00 | 1.65 | 1.65 | 1003.8 | |
| 20260506181538 | -17 | 211 | 0.0 | 1.6 | 0.00 | 1.65 | 1.65 | 1003.8 | |
| 20260506181035 | -17 | 216 | 0.0 | 6.4 | 0.00 | 1.65 | 1.65 | 1003.8 | |
| 20260506180531 | -17 | 205 | 3.2 | 4.8 | 0.00 | 1.65 | 1.65 | 1003.8 | |
| 20260506180028 | -17 | 215 | 3.2 | 4.8 | 0.00 | 1.65 | 1.65 | 1003.9 | |
| 20260506175525 | -17 | 222 | 4.8 | 4.8 | 0.00 | 1.65 | 1.65 | 1003.7 | |
| 20260506175021 | -17 | 217 | 3.2 | 9.7 | 0.00 | 1.65 | 1.65 | 1003.7 | |
| 20260506174520 | -17 | 224 | 3.2 | 9.7 | 0.00 | 1.65 | 1.65 | 1003.7 | |
| 20260506174016 | -17 | 223 | 4.8 | 9.7 | 0.00 | 1.65 | 1.65 | 1003.6 | |
| 20260506173514 | -17 | 210 | 0.0 | 14.5 | 0.00 | 1.65 | 1.65 | 1003.7 | |
| 20260506173010 | -17 | 219 | 1.6 | 9.7 | 0.00 | 1.65 | 1.65 | 1003.6 | |
| 20260506172508 | -17 | 205 | 3.2 | 9.7 | 0.00 | 1.65 | 1.65 | 1003.7 | |
| 20260506172003 | -17 | 219 | 3.2 | 12.9 | 0.00 | 1.65 | 1.65 | 1003.8 | |
| 20260506171501 | -17 | 223 | 4.8 | 6.4 | 0.00 | 1.65 | 1.65 | 1003.8 | |
| 20260506170959 | -17 | 221 | 1.6 | 6.4 | 0.13 | 1.65 | 1.65 | 1004.0 | |
| 20260506170455 | -17 | 216 | 3.2 | 6.4 | 0.13 | 1.65 | 1.65 | 1003.9 | |
| 20260506165953 | -17 | 220 | 1.6 | 3.2 | 0.18 | 1.63 | 1.63 | 1004.2 | |
| 20260506165452 | -17 | 221 | 4.8 | 6.4 | 0.30 | 1.63 | 1.63 | 1004.0 | |
| 20260506164948 | -17 | 207 | 1.6 | 4.8 | 0.13 | 1.60 | 1.60 | 1004.0 | |
| 20260506164445 | -17 | 220 | 1.6 | 12.9 | 0.18 | 1.57 | 1.57 | 1004.0 | |
| 20260506163943 | -17 | 213 | 0.0 | 3.2 | 0.18 | 1.55 | 1.55 | 1004.1 | |
| 20260506163438 | -17 | 206 | 1.6 | 3.2 | 0.30 | 1.55 | 1.55 | 1004.2 | |
| 20260506162932 | -17 | 215 | 1.6 | 6.4 | 0.13 | 1.52 | 1.52 | 1004.3 | |
| 20260506162431 | -17 | 230 | 3.2 | 4.8 | 0.00 | 1.50 | 1.50 | 1004.1 | |
| 20260506161927 | -17 | 225 | 3.2 | 4.8 | 0.00 | 1.50 | 1.50 | 1004.1 | |
| 20260506161425 | -17 | 214 | 1.6 | 4.8 | 0.00 | 1.50 | 1.50 | 1004.1 | |
| 20260506160917 | -17 | 213 | 0.0 | 6.4 | 0.00 | 1.50 | 1.50 | 1004.1 | |
| 20260506160414 | -17 | 215 | 1.6 | 6.4 | 0.18 | 1.50 | 1.50 | 1004.0 | |
| 20260506155912 | -17 | 212 | 3.2 | 4.8 | 0.18 | 1.50 | 1.50 | 1004.3 | |
| 20260506155408 | -17 | 214 | 4.8 | 6.4 | 0.13 | 1.47 | 1.47 | 1004.3 | |
| 20260506153525 | -17 | 213 | 0.0 | 1.6 | 0.43 | 1.37 | 1.37 | 1004.1 | |
| 20260506153022 | -17 | 217 | 0.0 | 6.4 | 0.43 | 1.32 | 1.32 | 1004.3 | |
| 20260506152519 | -17 | 237 | 4.8 | 4.8 | 0.48 | 1.30 | 1.30 | 1004.2 | |
| 20260506152017 | -17 | 213 | 3.2 | 4.8 | 0.36 | 1.24 | 1.24 | 1004.3 | |
| 20260506151514 | -17 | 195 | 6.4 | 6.4 | 0.48 | 1.22 | 1.22 | 1004.3 | |
| 20260506151012 | -17 | 224 | 1.6 | 4.8 | 0.30 | 1.17 | 1.17 | 1004.6 | |
| 20260506150508 | -17 | 185 | 9.7 | 11.3 | 0.13 | 1.14 | 1.14 | 1004.2 | |
| 20260506150005 | -17 | 194 | 6.4 | 9.7 | 0.18 | 1.12 | 1.12 | 1004.2 | |
| 20260506145501 | -17 | 215 | 1.6 | 6.4 | 0.13 | 1.09 | 1.09 | 1004.2 | |
| 20260506144959 | -17 | 217 | 1.6 | 6.4 | 0.30 | 1.09 | 1.09 | 1004.2 | |
| 20260506144455 | -17 | 196 | 6.4 | 9.7 | 0.30 | 1.07 | 1.07 | 1004.1 | |
| 20260506143953 | -17 | 173 | 6.4 | 6.4 | 0.30 | 1.04 | 1.04 | 1004.5 | |
| 20260506143450 | -17 | 211 | 0.0 | 4.8 | 0.13 | 0.99 | 0.99 | 1004.2 | |
| 20260506142949 | -17 | 212 | 0.0 | 6.4 | 0.13 | 0.99 | 0.99 | 1004.3 | |
| 20260506142446 | -17 | 217 | 3.2 | 6.4 | 0.18 | 0.97 | 0.97 | 1004.3 | |
| 20260506141944 | -17 | 214 | 3.2 | 9.7 | 0.18 | 0.97 | 0.97 | 1004.5 | |
| 20260506141442 | -17 | 219 | 0.0 | 3.2 | 0.00 | 0.94 | 0.94 | 1004.5 | |
| 20260506140940 | -17 | 215 | 1.6 | 4.8 | 0.00 | 0.94 | 0.94 | 1004.1 | |
| 20260506140436 | -17 | 212 | 1.6 | 3.2 | 0.00 | 0.94 | 0.94 | 1004.0 | |
| 20260506135933 | -17 | 222 | 1.6 | 4.8 | 0.13 | 0.94 | 0.94 | 1004.2 | |
| 20260506135431 | -17 | 205 | 3.2 | 3.2 | 0.00 | 0.91 | 0.91 | 1004.0 | |
| 20260506134927 | -17 | 197 | 1.6 | 3.2 | 0.18 | 0.91 | 0.91 | 1004.3 | |
| 20260506134423 | -17 | 215 | 0.0 | 1.6 | 0.36 | 0.91 | 0.91 | 1004.3 | |
| 20260506133920 | -17 | 211 | 0.0 | 3.2 | 0.48 | 0.89 | 0.89 | 1004.6 | |
| 20260506133417 | -17 | 205 | 1.6 | 1.6 | 0.30 | 0.86 | 0.86 | 1004.9 | |
| 20260506132913 | -17 | 216 | 1.6 | 4.8 | 0.13 | 0.81 | 0.81 | 1005.0 | |
| 20260506132411 | -17 | 203 | 3.2 | 3.2 | 0.18 | 0.79 | 0.79 | 1005.0 | |
| 20260506131908 | -17 | 215 | 1.6 | 4.8 | 0.13 | 0.76 | 0.76 | 1005.1 | |
| 20260506131404 | -17 | 204 | 0.0 | 3.2 | 0.43 | 0.76 | 0.76 | 1005.3 | |
| 20260506130902 | -17 | 212 | 0.0 | 0.0 | 0.43 | 0.71 | 0.71 | 1005.5 | |
| 20260506130358 | -17 | 212 | 0.0 | 0.0 | 0.48 | 0.69 | 0.69 | 1005.4 | |
| 20260506125856 | -17 | 209 | 1.6 | 1.6 | 0.36 | 0.64 | 0.64 | 1005.4 | |
| 20260506125354 | -17 | 205 | 3.2 | 3.2 | 0.48 | 0.61 | 0.61 | 1005.5 | |
| 20260506124852 | -17 | 202 | 0.0 | 1.6 | 0.48 | 0.56 | 0.56 | 1005.3 | |
| 20260506124349 | -17 | 210 | 0.0 | 0.0 | 0.30 | 0.51 | 0.51 | 1005.3 | |
| 20260506123847 | -17 | 210 | 0.0 | 0.0 | 0.30 | 0.48 | 0.48 | 1005.2 | |
| 20260506123345 | -17 | 210 | 0.0 | 0.0 | 0.30 | 0.46 | 0.46 | 1004.9 | |
| 20260506122842 | -17 | 210 | 0.0 | 0.0 | 0.30 | 0.43 | 0.43 | 1005.0 | |
| 20260506122338 | -17 | 210 | 0.0 | 0.0 | 0.30 | 0.41 | 0.41 | 1005.1 | |
| 20260506121837 | -17 | 210 | 0.0 | 1.6 | 0.30 | 0.38 | 0.38 | 1004.9 | |
| 20260506121333 | -17 | 210 | 0.0 | 0.0 | 0.18 | 0.36 | 0.36 | 1005.0 | |
| 20260506120831 | -17 | 210 | 0.0 | 0.0 | 0.13 | 0.33 | 0.33 | 1005.1 | |
| 20260506120329 | -17 | 210 | 0.0 | 0.0 | 0.18 | 0.30 | 0.30 | 1005.0 | |
| 20260506115826 | -17 | 212 | 1.6 | 3.2 | 0.18 | 0.30 | 0.30 | 1005.2 | |
| 20260506115324 | -17 | 205 | 0.0 | 0.0 | 0.00 | 0.28 | 0.28 | 1005.1 | |
| 20260506114821 | -17 | 205 | 0.0 | 0.0 | 0.18 | 0.28 | 0.28 | 1005.1 | |
| 20260506114319 | -17 | 205 | 0.0 | 1.6 | 0.30 | 0.28 | 0.28 | 1005.1 | |
| 20260506113817 | -17 | 205 | 0.0 | 3.2 | 0.13 | 0.25 | 0.25 | 1005.2 | |
| 20260506113315 | -17 | 205 | 0.0 | 0.0 | 0.00 | 0.23 | 0.23 | 1005.1 | |
| 20260506112811 | -17 | 205 | 0.0 | 1.6 | 0.18 | 0.23 | 0.23 | 1005.1 | |
| 20260506112309 | -17 | 204 | 3.2 | 3.2 | 0.18 | 0.23 | 0.23 | 1005.1 | |
| 20260506111806 | -17 | 204 | 0.0 | 3.2 | 0.00 | 0.20 | 0.20 | 1005.2 | |
| 20260506111304 | -17 | 210 | 3.2 | 3.2 | 0.00 | 0.20 | 0.20 | 1004.9 | |
| 20260506110801 | -17 | 209 | 1.6 | 4.8 | 0.00 | 0.20 | 0.20 | 1005.0 | |
| 20260506110258 | -17 | 205 | 0.0 | 1.6 | 0.13 | 0.20 | 0.20 | 1005.1 | |
| 20260506105754 | -17 | 188 | 1.6 | 3.2 | 0.00 | 0.18 | 0.18 | 1005.2 | |
| 20260506105251 | -17 | 205 | 0.0 | 1.6 | 0.18 | 0.18 | 0.18 | 1005.3 | |
| 20260506104749 | -17 | 205 | 0.0 | 1.6 | 0.30 | 0.18 | 0.18 | 1005.4 | |
| 20260506104246 | -17 | 207 | 0.0 | 0.0 | 0.30 | 0.15 | 0.15 | 1005.3 | |
| 20260506103744 | -17 | 207 | 0.0 | 0.0 | 0.30 | 0.13 | 0.13 | 1005.2 | |
| 20260506103241 | -17 | 211 | 0.0 | 1.6 | 0.13 | 0.10 | 0.10 | 1005.1 | |
| 20260506102738 | -17 | 212 | 0.0 | 0.0 | 0.00 | 0.08 | 0.08 | 1005.1 | |
| 20260506102236 | -17 | 207 | 0.0 | 3.2 | 0.18 | 0.08 | 0.08 | 1005.0 | |
| 20260506101733 | -17 | 210 | 1.6 | 1.6 | 0.18 | 0.08 | 0.08 | 1005.0 | |
| 20260506101229 | -17 | 207 | 0.0 | 1.6 | 0.00 | 0.05 | 0.05 | 1005.0 | |
| 20260506100728 | -17 | 206 | 1.6 | 1.6 | 0.00 | 0.05 | 0.05 | 1004.8 | |
| 20260506100225 | -17 | 208 | 1.6 | 3.2 | 0.13 | 0.05 | 0.05 | 1005.0 | |
| 20260506095724 | -17 | 201 | 1.6 | 3.2 | 0.00 | 0.03 | 0.03 | 1005.0 | |
| 20260506095220 | -17 | 201 | 1.6 | 1.6 | 0.18 | 0.03 | 0.03 | 1004.8 | |
| 20260506094717 | -17 | 205 | 1.6 | 1.6 | 0.18 | 0.03 | 0.03 | 1004.8 | |
| 20260506094215 | -17 | 206 | 3.2 | 3.2 | 0.00 | 0.00 | 0.00 | 1004.7 | |
| 20260506093714 | -17 | 207 | 1.6 | 3.2 | 0.00 | 0.00 | 0.00 | 1005.0 | |
| 20260506093210 | -17 | 201 | 3.2 | 4.8 | 0.00 | 0.00 | 0.00 | 1004.6 | |
| 20260506092708 | -17 | 207 | 3.2 | 3.2 | 0.00 | 0.00 | 0.00 | 1004.6 | |
| 20260506092205 | -17 | 207 | 3.2 | 3.2 | 0.00 | 0.00 | 0.00 | 1004.7 | |
| 20260506091703 | -17 | 206 | 1.6 | 3.2 | 0.00 | 0.00 | 0.00 | 1004.6 | |
| 20260506091200 | -17 | 211 | 3.2 | 3.2 | 0.00 | 0.00 | 0.00 | 1004.5 | |
| 20260506090658 | -17 | 207 | 1.6 | 1.6 | 0.00 | 0.00 | 0.00 | 1004.5 | |
| 20260506090154 | -17 | 207 | 0.0 | 0.0 | 0.00 | 0.00 | 0.00 | 1004.7 | |
| 20260506085651 | -17 | 207 | 1.6 | 3.2 | 0.00 | 0.00 | 0.00 | 1004.7 | |
| 20260506085147 | -17 | 207 | 1.6 | 3.2 | 0.00 | 0.00 | 0.00 | 1005.0 | |
| 20260506084644 | -17 | 207 | 1.6 | 1.6 | 0.00 | 0.00 | 0.00 | 1005.0 | |
| 20260506084141 | -17 | 207 | 3.2 | 3.2 | 0.00 | 0.00 | 0.00 | 1005.1 | |
| 20260506083638 | -17 | 207 | 0.0 | 3.2 | 0.00 | 0.00 | 0.00 | 1005.2 | |
| 20260506083136 | -17 | 207 | 1.6 | 3.2 | 0.00 | 0.00 | 0.00 | 1005.2 | |
| 20260506082632 | -17 | 207 | 0.0 | 0.0 | 0.00 | 0.00 | 0.00 | 1005.0 | |
| 20260506082128 | -17 | 207 | 0.0 | 0.0 | 0.00 | 0.00 | 0.00 | 1005.0 | |
| 20260506081626 | -17 | 207 | 0.0 | 0.0 | 0.00 | 0.00 | 0.00 | 1004.6 | |
| 20260506081124 | -17 | 207 | 0.0 | 0.0 | 0.00 | 0.00 | 0.00 | 1004.8 | |
| 20260506080621 | -17 | 207 | 0.0 | 0.0 | 0.00 | 0.00 | 0.00 | 1004.6 | |
| 20260506080117 | -17 | 208 | 0.0 | 0.0 | 0.00 | 0.00 | 0.00 | 1004.8 | |
| 20260506073101 | -17 | 191 | 3.2 | 9.7 | 0.00 | 0.00 | 0.00 | 1004.8 | |
| 20260506072558 | -17 | 197 | 1.6 | 6.4 | 0.00 | 0.00 | 0.00 | 1004.9 | |
| 20260506072056 | -17 | 200 | 3.2 | 3.2 | 0.00 | 0.00 | 0.00 | 1004.9 | |
| 20260506071553 | -17 | 205 | 0.0 | 3.2 | 0.00 | 0.00 | 0.00 | 1004.8 | |
| 20260506071051 | -17 | 196 | 3.2 | 4.8 | 0.00 | 0.00 | 0.00 | 1005.0 | |
| 20260506070548 | -17 | 203 | 1.6 | 3.2 | 0.00 | 0.00 | 0.00 | 1004.8 | |
| 20260506062022 | -17 | 209 | 0.0 | 1.6 | 0.00 | 0.00 | 0.00 | 1005.3 | |
| 20260506061518 | -17 | 211 | 0.0 | 0.0 | 0.00 | 0.00 | 0.00 | 1005.5 | |
| 20260506061016 | -17 | 211 | 0.0 | 0.0 | 0.00 | 0.00 | 0.00 | 1005.5 | |
| 20260506060514 | -17 | 213 | 0.0 | 0.0 | 0.00 | 0.00 | 0.00 | 1005.6 | |
| 20260506050943 | -17 | 208 | 0.0 | 0.0 | 0.00 | 0.00 | 0.00 | 1006.2 | |
| 20260506050441 | -17 | 208 | 0.0 | 0.0 | 0.00 | 0.00 | 0.00 | 1006.3 | |
| 20260506044931 | -17 | 210 | 0.0 | 0.0 | 0.00 | 0.00 | 0.00 | 1006.2 | |
| 20260506044429 | -17 | 211 | 0.0 | 0.0 | 0.00 | 0.00 | 0.00 | 1006.3 | |
| 20260506043925 | -17 | 209 | 0.0 | 3.2 | 0.00 | 0.00 | 0.00 | 1006.3 | |
| 20260506043423 | -17 | 197 | 0.0 | 0.0 | 0.00 | 0.00 | 0.00 | 1006.3 | |
| 20260506042920 | -17 | 212 | 0.0 | 0.0 | 0.00 | 0.00 | 0.00 | 1006.4 | |
| 20260506042420 | -17 | 210 | 0.0 | 3.2 | 0.00 | 0.00 | 0.00 | 1006.3 | |
| 20260506041918 | -17 | 202 | 4.8 | 9.7 | 0.00 | 0.00 | 0.00 | 1006.4 | |
| 20260506041415 | -17 | 207 | 0.0 | 0.0 | 0.00 | 0.00 | 0.00 | 1006.7 | |
| 20260506040912 | -17 | 203 | 3.2 | 3.2 | 0.00 | 0.00 | 0.00 | 1006.6 | |
| 20260506040409 | -17 | 214 | 0.0 | 1.6 | 0.00 | 0.00 | 0.00 | 1006.8 | |
| 20260506035905 | -17 | 208 | 1.6 | 4.8 | 0.00 | 0.13 | 0.13 | 1006.7 | |
| 20260506035403 | -17 | 208 | 3.2 | 3.2 | 0.00 | 0.13 | 0.13 | 1006.6 | |
| 20260506034859 | -17 | 190 | 4.8 | 6.4 | 0.00 | 0.13 | 0.13 | 1006.8 | |
| 20260506034358 | -17 | 206 | 1.6 | 3.2 | 0.00 | 0.13 | 0.13 | 1006.8 | |
| 20260506033854 | -17 | 193 | 1.6 | 3.2 | 0.00 | 0.13 | 0.13 | 1006.7 | |
| 20260506033351 | -17 | 216 | 0.0 | 0.0 | 0.00 | 0.13 | 0.13 | 1006.6 | |
| 20260506032848 | -17 | 216 | 0.0 | 3.2 | 0.00 | 0.13 | 0.13 | 1006.6 | |
| 20260506032344 | -17 | 215 | 0.0 | 4.8 | 0.00 | 0.13 | 0.13 | 1006.7 | |
| 20260506031841 | -17 | 218 | 3.2 | 3.2 | 0.00 | 0.13 | 0.13 | 1006.5 | |
| 20260506031339 | -17 | 207 | 0.0 | 1.6 | 0.00 | 0.13 | 0.13 | 1006.6 | |
| 20260506030836 | -17 | 215 | 1.6 | 4.8 | 0.00 | 0.13 | 0.13 | 1006.6 | |
| 20260506030334 | -17 | 222 | 4.8 | 6.4 | 0.00 | 0.13 | 0.13 | 1006.6 | |
| 20260506025831 | -17 | 204 | 3.2 | 3.2 | 0.00 | 0.13 | 0.13 | 1006.3 | |
| 20260506025327 | -17 | 210 | 4.8 | 4.8 | 0.00 | 0.13 | 0.13 | 1006.5 | |
| 20260506024824 | -17 | 212 | 0.0 | 0.0 | 0.00 | 0.13 | 0.13 | 1006.4 | |
| 20260506024321 | -17 | 205 | 1.6 | 3.2 | 0.00 | 0.13 | 0.13 | 1006.6 | |
| 20260506023817 | -17 | 205 | 0.0 | 0.0 | 0.00 | 0.13 | 0.13 | 1006.6 | |
| 20260506023314 | -17 | 205 | 0.0 | 1.6 | 0.00 | 0.13 | 0.13 | 1006.4 | |
| 20260506022811 | -17 | 209 | 0.0 | 0.0 | 0.00 | 0.13 | 0.13 | 1006.2 | |
| 20260506022309 | -17 | 208 | 0.0 | 1.6 | 0.00 | 0.13 | 0.13 | 1006.4 | |
| 20260506021807 | -17 | 209 | 1.6 | 1.6 | 0.00 | 0.13 | 0.13 | 1006.3 |